Location: Budapest
(47.4979°N, 19.0402°E)
Time: 06:08:11
(UTC+02:00)

Envisat - Pass Details

Date: 13 October 2017
Orbit: 764 x 766 km, 98.2° (Epoch: 22 October)

Event Time Altitude Azimuth Distance (km) Brightness Sun altitude
Exits shadow 21:56:20 15° 268° (W) 1,960 5.5 -38.9°
Maximum altitude 21:56:39 15° 272° (W) 1,956 5.5 -38.9°
Drops below altitude 10° 21:59:36 10° 308° (NW) 2,310 6.2 -39.3°
Sets 22:02:55 0° 330° (NNW) 3,242 7.0 -39.8°
